IZ3VCM Weather Reports


Display with metric or nautical units.
time (UTC)temp
F
wind
direction
speed
MPH
gust
MPH
rain 1hr
in
rain 24hr
in
rain mn
in
humidity
%
barometer
mb
20260905231504 72 0 0.0 0.0 0.00 0.00 0.00 89 1018.5
20260905230008 72 0 0.0 0.0 0.00 0.00 0.00 89 1018.4
20260905224504 72 0 0.0 0.0 0.00 0.00 0.00 88 1018.3
20260905221505 72 0 0.0 0.0 0.00 0.00 0.00 87 1018.1
20260905220007 72 0 0.0 0.0 0.00 0.00 0.00 86 1017.9
20260905214504 74 0 0.0 0.0 0.00 0.00 0.00 85 1017.8
20260905213007 74 0 0.0 0.0 0.00 0.00 0.00 85 1017.7
20260905211505 74 0 0.0 0.0 0.00 0.00 0.00 85 1017.7
20260905210007 75 0 0.0 0.0 0.00 0.00 0.00 83 1017.5
20260905204505 76 0 0.0 0.0 0.00 0.00 0.00 82 1017.5
20260905203007 77 128 0.0 3.0 0.00 0.00 0.00 81 1017.5
20260905201506 78 135 1.0 3.0 0.00 0.00 0.00 81 1017.3
20260905200006 79 122 3.0 4.0 0.00 0.00 0.00 80 1017.3
20260905194504 79 136 4.0 6.0 0.00 0.00 0.00 79 1017.3
20260905193008 80 135 3.0 4.0 0.00 0.00 0.00 78 1016.8
20260905191506 80 135 4.0 5.0 0.00 0.00 0.00 76 1016.7
20260905190006 80 127 4.0 6.0 0.00 0.00 0.00 74 1016.5
20260905184505 81 117 3.0 5.0 0.00 0.00 0.00 72 1016.2
20260905183007 81 123 3.0 6.0 0.00 0.00 0.00 66 1016.0
20260905181504 81 0 0.0 0.0 0.00 0.00 0.00 61 1015.7
20260905180007 83 0 0.0 0.0 0.00 0.00 0.00 59 1015.5
20260905174504 84 0 0.0 0.0 0.00 0.00 0.00 57 1015.5
20260905173006 86 0 0.0 0.0 0.00 0.00 0.00 56 1015.3
20260905171505 89 0 0.0 0.0 0.00 0.00 0.00 51 1015.2
20260905170006 94 0 0.0 0.0 0.00 0.00 0.00 48 1015.1
20260905164504 97 0 0.0 0.0 0.00 0.00 0.00 47 1015.2
20260905163007 96 0 0.0 0.0 0.00 0.00 0.00 46 1015.0
20260905161505 96 0 0.0 0.0 0.00 0.00 0.00 45 1015.1
20260905160007 96 314 0.0 2.0 0.00 0.00 0.00 45 1015.0
20260905154504 96 332 2.0 6.0 0.00 0.00 0.00 45 1014.7
20260905153007 96 270 0.0 2.0 0.00 0.00 0.00 44 1014.5
20260905151504 96 286 1.0 4.0 0.00 0.00 0.00 43 1014.7
20260905150007 95 299 2.0 4.0 0.00 0.00 0.00 43 1014.8
20260905144504 95 311 3.0 6.0 0.00 0.00 0.00 44 1014.8
20260905143006 95 305 1.0 5.0 0.00 0.00 0.00 44 1014.9
20260905141504 95 284 4.0 5.0 0.00 0.00 0.00 43 1014.8
20260905140007 95 298 1.0 2.0 0.00 0.00 0.00 43 1015.0
20260905134504 95 282 2.0 5.0 0.00 0.00 0.00 43 1015.2
20260905133006 95 289 2.0 4.0 0.00 0.00 0.00 45 1015.2
20260905131504 95 270 3.0 7.0 0.00 0.00 0.00 45 1015.4
20260905130006 95 0 0.0 0.0 0.00 0.00 0.00 48 1015.4
20260905124505 94 292 1.0 3.0 0.00 0.00 0.00 49 1015.8
20260905123006 94 287 4.0 7.0 0.00 0.00 0.00 49 1015.9
20260905121504 94 5 3.0 7.0 0.00 0.00 0.00 49 1016.0
20260905120006 93 337 0.0 2.0 0.00 0.00 0.00 52 1016.1
20260905114504 92 254 1.0 3.0 0.00 0.00 0.00 50 1016.2
20260905113007 92 323 3.0 5.0 0.00 0.00 0.00 52 1016.3
20260905111505 92 299 4.0 6.0 0.00 0.00 0.00 50 1016.2
20260905110006 91 344 2.0 5.0 0.00 0.00 0.00 52 1016.4
20260905104504 92 314 1.0 5.0 0.00 0.00 0.00 53 1016.4
20260905103006 89 319 2.0 6.0 0.00 0.00 0.00 55 1016.3
20260905101504 89 294 3.0 5.0 0.00 0.00 0.00 55 1016.4
20260905100006 91 295 4.0 7.0 0.00 0.00 0.00 54 1016.1
20260905094503 89 313 4.0 6.0 0.00 0.00 0.00 58 1016.4
20260905093006 90 296 0.0 2.0 0.00 0.00 0.00 59 1016.5
20260905091504 89 314 4.0 6.0 0.00 0.00 0.00 61 1016.5
20260905090006 88 337 0.0 3.0 0.00 0.00 0.00 62 1016.4
20260905084505 89 23 1.0 3.0 0.00 0.00 0.00 62 1016.3
20260905083006 88 1 1.0 3.0 0.00 0.00 0.00 65 1016.3
20260905081504 87 0 0.0 0.0 0.00 0.00 0.00 65 1016.1
20260905080005 86 337 0.0 1.0 0.00 0.00 0.00 69 1016.1
20260905074504 83 0 0.0 0.0 0.00 0.00 0.00 71 1015.7
20260905073007 82 314 1.0 1.0 0.00 0.00 0.00 72 1015.8
20260905071505 82 314 0.0 2.0 0.00 0.00 0.00 72 1015.8
20260905070008 82 0 0.0 0.0 0.00 0.00 0.00 71 1015.8